User: anonymous   Login
Location: SAPM � Hemmingford
(45.0500°N, 73.5833°W)
Time: 19:06:25
(UTC-05:00)
Language:

Cosmos 1674 Rocket - Orbit

View from above orbital plane
View from above orbital plane
View from above satellite
View from above satellite

Ground track
Ground track

The orbit data is extracted from the following two-line orbital elements,

1 15945U 85069B   15065.45235461  .00000663  00000-0  77261-4 0  9991
2 15945 082.5293 193.6876 0020671 149.8150 210.4261 14.83620109597392
Epoch (UTC): 06 March 2015 10:51:23
Eccentricity: 0.0020671
inclination: 82.5293°
perigee height: 603 km
apogee height: 632 km
right ascension of ascending node: 193.6876°
argument of perigee: 149.8150°
revolutions per day: 14.83620109
mean anomaly at epoch: 210.4261°
orbit number at epoch: 59739

The dashed part of the orbit path shows where the satellite is in the earth's shadow,  

DLR